Date String (YYYY-MM-DD hh:mm:ss) UTC,Instrument flags,Ambient pressure (hPa),Sample flow (lpm),Bypass flow (lpm),Sample temperature (°C),Ambient temperature (°C),ASC tube jacket temperature (°C),LED temperature (°C),Box temperature (°C),Sample RH (%),Span deviation,Mass concentration (μg/m³),Mass concentration (μg/m³),Mass concentration (μg/m³)
DateTimeUTC,F1_M11,P_M11,Q1_M11,Q2_M11,T1_M11,T2_M11,T3_M11,T4_M11,T5_M11,U1_M11,ZSPAN_M11,X2_M11,X0_M11,X1_M11
2022-11-14 20:00:00,,0825.3,4.99,0.00,22.5,21.3,00.0,31.4,24.4,08.2,0000.0,0004.59,0009.51,0004.24
2022-11-14 20:01:00,,0825.3,5.00,0.00,22.5,21.3,00.0,31.4,24.5,08.2,0000.0,0004.57,0009.68,0004.23
2022-11-14 20:02:00,,0825.3,5.00,0.00,22.5,21.3,00.0,31.4,24.4,08.1,0000.0,0004.59,0009.68,0004.24
2022-11-14 20:03:00,,0825.3,5.00,0.00,22.5,21.3,00.0,31.4,24.4,08.1,0000.0,0004.56,0009.50,0004.24
2022-11-14 20:04:00,,0825.3,4.99,0.00,22.5,21.3,00.0,31.4,24.4,08.1,0000.0,0004.51,0009.24,0004.22
2022-11-14 20:05:00,,0825.3,4.99,0.00,22.5,21.3,00.0,31.4,24.4,08.2,0000.0,0004.51,0009.25,0004.22
2022-11-14 20:06:00,,0825.3,5.00,0.00,22.5,21.2,00.0,31.4,24.4,08.2,0000.0,0004.52,0009.37,0004.22
2022-11-14 20:07:00,,0825.3,5.01,0.00,22.5,21.1,00.0,31.4,24.4,08.1,0000.0,0004.53,0009.59,0004.22
2022-11-14 20:08:00,,0825.3,5.01,0.00,22.5,21.2,00.0,31.4,24.4,08.2,0000.0,0004.51,0008.69,0004.19
2022-11-14 20:09:00,,0825.3,5.00,0.00,22.5,21.2,00.0,31.4,24.4,08.1,0000.0,0004.51,0008.50,0004.18
2022-11-14 20:10:00,,0825.3,5.00,0.00,22.5,21.2,00.0,31.4,24.4,08.1,0000.0,0004.49,0008.56,0004.16
2022-11-14 20:11:00,,0825.3,5.00,0.00,22.5,21.2,00.0,31.4,24.4,08.1,0000.0,0004.46,0008.24,0004.15
2022-11-14 20:12:00,,0825.3,5.00,0.00,22.5,21.1,00.0,31.4,24.4,08.2,0000.0,0004.47,0008.08,0004.15
2022-11-14 20:13:00,,0825.3,5.00,0.00,22.5,21.2,00.0,31.4,24.4,08.2,0000.0,0004.48,0008.16,0004.14
2022-11-14 20:14:00,,0825.3,5.00,0.00,22.5,21.2,00.0,31.4,24.4,08.2,0000.0,0004.49,0008.24,0004.13
2022-11-14 20:15:00,,0825.3,5.00,0.00,22.5,21.3,00.0,31.4,24.4,08.2,0000.0,0004.49,0008.24,0004.14
2022-11-14 20:16:00,,0825.3,4.98,0.00,22.5,21.3,00.0,31.4,24.4,08.2,0000.0,0004.48,0008.05,0004.13
2022-11-14 20:17:00,,0825.2,5.01,0.00,22.5,21.3,00.0,31.4,24.4,08.2,0000.0,0004.47,0007.99,0004.12
2022-11-14 20:18:00,,0825.2,5.01,0.00,22.5,21.4,00.0,31.4,24.4,08.2,0000.0,0004.48,0007.95,0004.12
2022-11-14 20:19:00,,0825.3,5.01,0.00,22.5,21.4,00.0,31.4,24.4,08.2,0000.0,0004.49,0008.00,0004.13
2022-11-14 20:20:00,,0825.3,4.99,0.00,22.5,21.4,00.0,31.4,24.4,08.1,0000.0,0004.51,0008.36,0004.15
2022-11-14 20:21:00,,0825.3,4.98,0.00,22.5,21.2,00.0,31.4,24.4,08.1,0000.0,0004.55,0008.51,0004.18
2022-11-14 20:22:00,,0825.2,5.00,0.00,22.5,21.1,00.0,31.4,24.4,08.2,0000.0,0004.59,0008.67,0004.20
2022-11-14 20:23:00,,0825.2,5.00,0.00,22.5,21.2,00.0,31.4,24.4,08.2,0000.0,0004.61,0008.57,0004.21
2022-11-14 20:24:00,,0825.2,5.00,0.00,22.5,21.2,00.0,31.4,24.4,08.2,0000.0,0004.61,0008.51,0004.23
2022-11-14 20:25:00,,0825.2,5.01,0.00,22.5,21.3,00.0,31.4,24.4,08.4,0000.0,0004.60,0008.60,0004.24
2022-11-14 20:26:00,,0825.2,5.00,0.00,22.5,21.3,00.0,31.4,24.4,08.2,0000.0,0004.61,0008.96,0004.25
2022-11-14 20:27:00,,0825.2,4.97,0.00,22.5,21.4,00.0,31.4,24.4,08.3,0000.0,0004.64,0009.04,0004.27
2022-11-14 20:28:00,,0825.2,5.00,0.00,22.5,21.4,00.0,31.4,24.5,08.1,0000.0,0004.66,0009.03,0004.29
2022-11-14 20:29:00,,0825.2,5.01,0.00,22.5,21.4,00.0,31.4,24.4,08.1,0000.0,0004.65,0008.76,0004.31
2022-11-14 20:30:00,,0825.2,5.01,0.00,22.5,21.4,00.0,31.4,24.4,08.1,0000.0,0004.67,0008.97,0004.33
2022-11-14 20:31:00,,0825.2,5.00,0.00,22.6,21.4,00.0,31.4,24.5,08.1,0000.0,0004.69,0009.50,0004.34
2022-11-14 20:32:00,,0825.2,5.00,0.00,22.6,21.4,00.0,31.4,24.5,08.2,0000.0,0004.69,0009.25,0004.34
2022-11-14 20:33:00,,0825.2,5.01,0.00,22.6,21.5,00.0,31.4,24.5,08.2,0000.0,0004.66,0008.94,0004.34
2022-11-14 20:34:00,,0825.2,4.99,0.00,22.6,21.5,00.0,31.5,24.5,08.2,0000.0,0004.68,0009.10,0004.36
2022-11-14 20:35:00,,0825.2,5.00,0.00,22.6,21.5,00.0,31.5,24.5,08.2,0000.0,0004.68,0009.43,0004.36
2022-11-14 20:36:00,,0825.2,5.00,0.00,22.6,21.5,00.0,31.5,24.5,08.2,0000.0,0004.66,0009.93,0004.35
2022-11-14 20:37:00,,0825.2,5.00,0.00,22.6,21.5,00.0,31.5,24.5,08.2,0000.0,0004.67,0009.86,0004.35
2022-11-14 20:38:00,,0825.2,5.01,0.00,22.6,21.6,00.0,31.5,24.6,08.2,0000.0,0004.68,0010.11,0004.34
2022-11-14 20:39:00,,0825.2,5.01,0.00,22.7,21.6,00.0,31.5,24.6,08.2,0000.0,0004.67,0010.26,0004.32
2022-11-14 20:40:00,,0825.2,4.98,0.00,22.7,21.6,00.0,31.5,24.6,08.2,0000.0,0004.67,0010.33,0004.32
2022-11-14 20:41:00,,0825.2,5.00,0.00,22.7,21.6,00.0,31.5,24.7,08.3,0000.0,0004.67,0010.32,0004.30
2022-11-14 20:42:00,,0825.2,5.00,0.00,22.7,21.6,00.0,31.5,24.6,08.2,0000.0,0004.68,0009.62,0004.29
2022-11-14 20:43:00,,0825.2,5.00,0.00,22.7,21.6,00.0,31.5,24.6,08.2,0000.0,0004.65,0009.45,0004.28
2022-11-14 20:44:00,,0825.2,5.00,0.00,22.7,21.6,00.0,31.5,24.7,08.2,0000.0,0004.66,0010.01,0004.27
2022-11-14 20:45:00,,0825.2,5.00,0.00,22.7,21.6,00.0,31.6,24.7,08.1,0000.0,0004.62,0009.86,0004.25
2022-11-14 20:46:00,,0825.2,5.00,0.00,22.7,21.6,00.0,31.6,24.7,08.2,0000.0,0004.62,0009.78,0004.25
2022-11-14 20:47:00,,0825.2,5.00,0.00,22.7,21.6,00.0,31.6,24.7,08.3,0000.0,0004.64,0009.60,0004.26
2022-11-14 20:48:00,,0825.2,5.00,0.00,22.7,21.6,00.0,31.6,24.7,08.2,0000.0,0004.67,0009.50,0004.27
2022-11-14 20:49:00,,0825.2,5.00,0.00,22.7,21.6,00.0,31.6,24.7,08.2,0000.0,0004.68,0009.27,0004.28
2022-11-14 20:50:00,,0825.2,5.00,0.00,22.7,21.6,00.0,31.6,24.7,08.2,0000.0,0004.68,0009.52,0004.29
2022-11-14 20:51:00,,0825.2,4.99,0.00,22.7,21.5,00.0,31.6,24.7,08.2,0000.0,0004.67,0009.50,0004.30
2022-11-14 20:52:00,,0825.2,5.00,0.00,22.7,21.5,00.0,31.6,24.7,08.2,0000.0,0004.65,0009.35,0004.31
2022-11-14 20:53:00,,0825.2,5.00,0.00,22.7,21.5,00.0,31.6,24.7,08.1,0000.0,0004.63,0009.28,0004.32
2022-11-14 20:54:00,,0825.2,5.00,0.00,22.7,21.6,00.0,31.6,24.7,08.2,0000.0,0004.63,0009.21,0004.31
2022-11-14 20:55:00,,0825.2,5.00,0.00,22.7,21.6,00.0,31.6,24.6,08.2,0000.0,0004.64,0008.78,0004.31
2022-11-14 20:56:00,,0825.2,5.00,0.00,22.7,21.6,00.0,31.6,24.7,08.2,0000.0,0004.66,0008.83,0004.30
2022-11-14 20:57:00,,0825.2,5.00,0.00,22.8,21.6,00.0,31.6,24.7,08.1,0000.0,0004.68,0008.68,0004.30
2022-11-14 20:58:00,,0825.2,5.00,0.00,22.8,21.7,00.0,31.6,24.7,08.2,0000.0,0004.69,0008.26,0004.30
2022-11-14 20:59:00,,0825.2,5.00,0.00,22.8,21.7,00.0,31.6,24.7,08.2,0000.0,0004.69,0008.22,0004.31
